Simultaneous Nadir Overpasses (SNOs) Predictions

Prediction of SNOs between LANDSAT-8 and METOP-B Satellite Orbit:

Table of predicted SNOs for the next 14.0 days since TLE Epoch: 12/7/2024
Index Date (LANDSAT-8) Time (LANDSAT-8) Lat,Lon (LANDSAT-8) SZA (LANDSAT-8 ) Date (METOP-B) Time (METOP-B) Lat,Lon (METOP-B) SZA (METOP-B ) Distance(km) Time Diff (sec)
1 12/09/2024 22:45:53 81.41,-116.48 106.89 12/09/2024 22:45:16 81.42,-116.54 106.87 1.09 37
2 12/09/2024 23:35:19 -81.43, 51.46 73.07 12/09/2024 23:35:55 -81.42, 51.45 73.06 0.40 36
3 12/12/2024 18:20:03 81.41, -50.05 107.07 12/12/2024 18:19:19 81.42, -50.10 107.05 0.96 44
4 12/12/2024 19:09:29 -81.43, 117.91 72.89 12/12/2024 19:09:58 -81.42, 117.92 72.88 0.33 29
5 12/15/2024 13:54:10 81.43, 16.76 107.24 12/15/2024 13:53:20 81.42, 16.60 107.20 2.82 50
6 12/15/2024 14:43:37 -81.43,-175.65 72.77 12/15/2024 14:44:00 -81.42,-175.77 72.78 2.10 23
7 12/18/2024 09:28:18 81.43, 83.19 107.29 12/18/2024 09:27:22 81.42, 83.15 107.26 0.80 56



Historial Predications of SNOs between LANDSAT-8 and METOP-B
